| time (UTC) | temp C | wind direction | speed KPH | gust KPH | rain 1hr cm | rain 24hr cm | rain mn cm | humidity % | barometer mb |
| 20260505124549 | 1 | 172 | 0.0 | 6.4 | 0.00 | 0.00 | 0.00 | 65 | 1014.1 |
| 20260505123048 | 1 | 178 | 0.0 | 9.7 | 0.00 | 0.00 | 0.00 | 65 | 1014.0 |
| 20260505121546 | 1 | 165 | 0.0 | 9.7 | 0.00 | 0.00 | 0.00 | 67 | 1014.1 |
| 20260505120108 | 1 | 0 | 0.0 | 6.4 | 0.00 | 0.00 | 0.00 | 67 | 1014.0 |
| 20260505114548 | 1 | 360 | 0.0 | 9.7 | 0.00 | 0.00 | 0.00 | 67 | 1014.3 |
| 20260505113048 | 1 | 0 | 0.0 | 8.0 | 0.00 | 0.00 | 0.00 | 66 | 1014.2 |
| 20260505111547 | 1 | 360 | 1.6 | 12.9 | 0.00 | 0.00 | 0.00 | 64 | 1014.2 |
| 20260505101540 | 2 | 360 | 1.6 | 8.0 | 0.00 | 0.00 | 0.00 | 62 | 1014.5 |
| 20260505100048 | 2 | 0 | 0.0 | 6.4 | 0.00 | 0.00 | 0.00 | 62 | 1014.5 |
| 20260505094551 | 2 | 0 | 0.0 | 3.2 | 0.00 | 0.00 | 0.00 | 61 | 1014.4 |
| 20260505093053 | 2 | 0 | 0.0 | 4.8 | 0.00 | 0.00 | 0.00 | 65 | 1014.5 |
| 20260505091547 | 1 | 0 | 0.0 | 8.0 | 0.00 | 0.00 | 0.00 | 66 | 1014.6 |
| 20260505090047 | 1 | 0 | 0.0 | 9.7 | 0.00 | 0.00 | 0.00 | 72 | 1014.8 |
| 20260505084541 | 0 | 0 | 0.0 | 3.2 | 0.00 | 0.00 | 0.00 | 75 | 1014.9 |
| 20260505083041 | 0 | 0 | 0.0 | 3.2 | 0.00 | 0.00 | 0.00 | 77 | 1015.2 |
| 20260505081548 | 0 | 0 | 0.0 | 3.2 | 0.00 | 0.00 | 0.00 | 77 | 1015.4 |
| 20260505080046 | 1 | 360 | 0.0 | 4.8 | 0.00 | 0.00 | 0.00 | 74 | 1015.4 |
| 20260505074546 | 1 | 360 | 0.0 | 8.0 | 0.00 | 0.00 | 0.00 | 74 | 1015.6 |
| 20260505073102 | 1 | 244 | 1.6 | 8.0 | 0.00 | 0.00 | 0.00 | 76 | 1015.6 |
| 20260505071540 | 1 | 360 | 0.0 | 6.4 | 0.00 | 0.00 | 0.00 | 76 | 1015.7 |
| 20260505070052 | 1 | 360 | 1.6 | 8.0 | 0.00 | 0.00 | 0.00 | 77 | 1016.0 |
| 20260505064547 | 1 | 204 | 3.2 | 12.9 | 0.00 | 0.00 | 0.00 | 75 | 1016.0 |
| 20260505063047 | 2 | 360 | 3.2 | 9.7 | 0.00 | 0.00 | 0.00 | 71 | 1015.9 |
| 20260505061552 | 2 | 360 | 4.8 | 11.3 | 0.00 | 0.00 | 0.00 | 68 | 1016.0 |
| 20260505060042 | 2 | 360 | 4.8 | 9.7 | 0.00 | 0.00 | 0.00 | 70 | 1016.0 |
| 20260505054601 | 2 | 219 | 4.8 | 9.7 | 0.00 | 0.00 | 0.00 | 72 | 1016.0 |
| 20260505053048 | 2 | 360 | 3.2 | 8.0 | 0.00 | 0.00 | 0.00 | 75 | 1016.1 |
| 20260505051540 | 3 | 360 | 3.2 | 9.7 | 0.00 | 0.00 | 0.00 | 72 | 1016.2 |
| 20260505041545 | 2 | 360 | 3.2 | 12.9 | 0.00 | 0.00 | 0.00 | 82 | 1016.4 |
| 20260505040050 | 2 | 223 | 4.8 | 20.9 | 0.00 | 0.00 | 0.00 | 81 | 1016.5 |
| 20260505034546 | 2 | 0 | 3.2 | 16.1 | 0.00 | 0.00 | 0.00 | 82 | 1016.5 |
| 20260505033042 | 2 | 360 | 1.6 | 6.4 | 0.00 | 0.00 | 0.00 | 84 | 1016.6 |
| 20260505031556 | 2 | 360 | 3.2 | 25.7 | 0.00 | 0.00 | 0.00 | 83 | 1016.5 |
| 20260505030050 | 2 | 221 | 8.0 | 22.5 | 0.00 | 0.00 | 0.00 | 82 | 1016.6 |
| 20260505024546 | 3 | 219 | 17.7 | 37.0 | 0.00 | 0.00 | 0.00 | 79 | 1016.1 |
| 20260505023056 | 3 | 360 | 6.4 | 19.3 | 0.00 | 0.00 | 0.00 | 75 | 1016.3 |
| 20260505021547 | 4 | 180 | 9.7 | 30.6 | 0.00 | 0.00 | 0.00 | 72 | 1016.2 |
| 20260505020044 | 5 | 151 | 11.3 | 32.2 | 0.00 | 0.00 | 0.00 | 68 | 1015.9 |
| 20260505014543 | 5 | 360 | 12.9 | 35.4 | 0.00 | 0.00 | 0.00 | 66 | 1016.0 |
| 20260505013045 | 5 | 360 | 11.3 | 30.6 | 0.00 | 0.00 | 0.00 | 66 | 1015.6 |
| 20260505011548 | 5 | 221 | 17.7 | 35.4 | 0.00 | 0.00 | 0.00 | 64 | 1015.7 |
| 20260505010048 | 6 | 360 | 19.3 | 45.1 | 0.00 | 0.00 | 0.00 | 63 | 1015.6 |
| 20260505004552 | 6 | 360 | 14.5 | 33.8 | 0.00 | 0.00 | 0.00 | 64 | 1015.8 |
| 20260505003047 | 6 | 360 | 20.9 | 40.2 | 0.00 | 0.00 | 0.00 | 64 | 1015.7 |
| 20260505001551 | 6 | 180 | 14.5 | 29.0 | 0.00 | 0.00 | 0.00 | 68 | 1016.3 |
| 20260505000106 | 6 | 211 | 12.9 | 27.4 | 0.00 | 0.00 | 0.00 | 70 | 1016.5 |
| 20260504234546 | 6 | 164 | 17.7 | 35.4 | 0.00 | 0.00 | 0.00 | 72 | 1016.6 |
| 20260504233044 | 7 | 360 | 14.5 | 32.2 | 0.00 | 0.00 | 0.00 | 69 | 1016.6 |
| 20260504231542 | 7 | 239 | 9.7 | 19.3 | 0.00 | 0.00 | 0.00 | 64 | 1016.6 |
| 20260504224549 | 8 | 360 | 6.4 | 17.7 | 0.00 | 0.00 | 0.00 | 62 | 1016.5 |
| 20260504223045 | 8 | 360 | 11.3 | 22.5 | 0.00 | 0.00 | 0.00 | 62 | 1016.5 |
| 20260504221559 | 8 | 178 | 8.0 | 17.7 | 0.00 | 0.00 | 0.00 | 63 | 1016.5 |
| 20260504220048 | 8 | 360 | 11.3 | 24.1 | 0.00 | 0.00 | 0.00 | 64 | 1016.7 |
| 20260504214550 | 7 | 360 | 8.0 | 29.0 | 0.00 | 0.00 | 0.00 | 71 | 1016.8 |
| 20260504213045 | 6 | 360 | 11.3 | 29.0 | 0.00 | 0.00 | 0.00 | 73 | 1017.0 |
| 20260504211547 | 6 | 151 | 12.9 | 32.2 | 0.00 | 0.00 | 0.00 | 73 | 1017.4 |
| 20260504210053 | 9 | 360 | 14.5 | 29.0 | 0.00 | 0.00 | 0.00 | 58 | 1017.2 |
| 20260504204541 | 10 | 232 | 3.2 | 24.1 | 0.00 | 0.00 | 0.00 | 58 | 1017.3 |
| 20260504203059 | 10 | 151 | 1.6 | 11.3 | 0.00 | 0.00 | 0.00 | 56 | 1017.3 |
| 20260504201544 | 10 | 0 | 3.2 | 12.9 | 0.00 | 0.00 | 0.00 | 60 | 1017.2 |
| 20260504200040 | 8 | 264 | 6.4 | 25.7 | 0.00 | 0.00 | 0.00 | 63 | 1017.3 |
| 20260504194542 | 8 | 163 | 1.6 | 9.7 | 0.00 | 0.00 | 0.00 | 61 | 1017.2 |
| 20260504193047 | 8 | 313 | 1.6 | 16.1 | 0.00 | 0.00 | 0.00 | 63 | 1017.3 |
| 20260504191546 | 8 | 0 | 3.2 | 16.1 | 0.00 | 0.00 | 0.00 | 66 | 1017.6 |
| 20260504190044 | 8 | 0 | 1.6 | 22.5 | 0.00 | 0.00 | 0.00 | 68 | 1017.7 |
| 20260504184540 | 7 | 0 | 1.6 | 17.7 | 0.00 | 0.00 | 0.00 | 72 | 1017.7 |
| 20260504183040 | 6 | 360 | 3.2 | 16.1 | 0.00 | 0.00 | 0.00 | 76 | 1017.9 |
| 20260504181554 | 7 | 273 | 3.2 | 20.9 | 0.00 | 0.00 | 0.00 | 66 | 1018.1 |
| 20260504180049 | 8 | 360 | 8.0 | 25.7 | 0.00 | 0.00 | 0.00 | 60 | 1018.1 |
| 20260504174544 | 8 | 219 | 9.7 | 29.0 | 0.00 | 0.00 | 0.00 | 59 | 1018.3 |
| 20260504173049 | 8 | 360 | 6.4 | 32.2 | 0.00 | 0.00 | 0.00 | 56 | 1018.2 |
| 20260504171549 | 9 | 360 | 12.9 | 27.4 | 0.00 | 0.00 | 0.00 | 56 | 1018.4 |